Simultaneous Nadir Overpasses (SNOs) Predictions

Prediction of SNOs between METOP-A and TERRA Satellite Orbit:

Table of predicted SNOs for the next 14.0 days since TLE Epoch: 11/11/2014
Index Date (METOP-A) Time (METOP-A) Lat,Lon (METOP-A) SZA (METOP-A ) Date (TERRA) Time (TERRA) Lat,Lon (TERRA) SZA (TERRA ) Distance(km) Time Diff (sec)
1 11/12/2014 05:44:44 81.30, 140.99 102.07 11/12/2014 05:45:06 81.30, 140.91 102.07 1.44 22
2 11/12/2014 06:35:24 -81.30, -51.35 77.88 11/12/2014 06:34:32 -81.31, -51.19 77.89 2.85 52
3 11/15/2014 01:19:09 81.30,-152.75 102.78 11/15/2014 01:19:15 81.29,-152.69 102.79 1.05 6
4 11/15/2014 02:09:48 -81.31, 15.34 77.12 11/15/2014 02:08:41 -81.31, 15.23 77.17 1.81 67
5 11/17/2014 20:02:53 -81.30, 106.27 76.56 11/17/2014 20:03:57 -81.29, 106.12 76.55 2.59 64
6 11/17/2014 20:53:33 81.30, -86.17 103.48 11/17/2014 20:53:23 81.29, -86.21 103.47 1.00 10
7 11/20/2014 15:37:16 -81.30, 172.81 75.91 11/20/2014 15:38:03 -81.30, 172.70 75.90 1.76 47
8 11/20/2014 16:27:56 81.30, -19.67 104.13 11/20/2014 16:27:29 81.30, -19.66 104.11 0.44 27
9 11/23/2014 11:11:40 -81.30,-120.73 75.32 11/23/2014 11:12:09 -81.31,-120.63 75.29 1.93 29




NCC Satellite Simultaneous Nadir Overpasses (SNOs) Prediction Service
